Miscellaneous Local Product
Issued by NWS Hastings, NE

Home | Current Version | Previous Version | Graphics & Text | Print | Product List | Glossary On
Versions: 1 2 3 4 5 6 7 8 9 10 11 12 13 14 15 16 17 18 19 20 21 22 23 24 25 26 27 28 29 30 31 32 33 34 35 36 37 38 39 40 41 42 43 44 45 46 47 48 49 50
000
AXUS43 KGID 210102
MISGRI

GID CWA HOURLY WEATHER ROUNDUP
NATIONAL WEATHER SERVICE HASTINGS NE
700 PM CST SAT DEC 20 2014

NOTE: "FAIR" INDICATES FEW OR NO CLOUDS BELOW 12,000 FEET WITH NO
SIGNIFICANT WEATHER AND/OR OBSTRUCTIONS TO VISIBILITY.

...SOUTH CENTRAL NEBRASKA...

CITY           SKY/WX    TMP DP  RH WIND       PRES   REMARKS
GRAND ISLAND   FOG       31  31 100 SE10      29.99S VSB<1/4 WCI  22
HASTINGS       MOCLDY    34  31  88 SE7       29.98R WCI  28
KEARNEY        PTCLDY    30  27  86 CALM      29.97S
ORD            FOG       30  30 100 SE3       29.95S VSB 1/4
YORK           FOG       32  32 100 CALM      30.02S VSB 1/4
AURORA         FOG       31  31 100 SE8       30.00R VSB 1/4 WCI  23
LEXINGTON      MOCLDY    34  31  87 SW6       29.96S WCI  29
HOLDREGE       MOCLDY    37  31  80 CALM      29.97S
HEBRON         MOCLDY    32  31  95 SE3       30.03S FOG

...NEBRASKA PANHANDLE...

CITY           SKY/WX    TMP DP  RH WIND       PRES   REMARKS
CHADRON        PTCLDY    31  25  78 CALM      29.90S
ALLIANCE       PTCLDY    30  26  85 SW3       29.90S
SCOTTSBLUFF    PTCLDY    28  22  78 E7        29.92R WCI  21
SIDNEY         PTCLDY    31  25  78 SW9       29.95R WCI  23

...WESTERN AND NORTH CENTRAL NEBRASKA...

CITY           SKY/WX    TMP DP  RH WIND       PRES   REMARKS
VALENTINE      CLEAR     29  25  85 W6        29.91R WCI  23
AINSWORTH      PTCLDY    27  24  91 SW6       29.90S WCI  20
ONEILL         CLOUDY    30  30 100 S8        29.95S FOG     WCI  22
BROKEN BOW     PTCLDY    32  28  85 CALM      29.93S
IMPERIAL       CLOUDY    36  27  69 CALM      29.95S
NORTH PLATTE   CLEAR     26  24  92 CALM      29.94R
MCCOOK         PTCLDY    38  31  76 S6        29.96F WCI  33

...EASTERN NEBRASKA...

CITY           SKY/WX    TMP DP  RH WIND       PRES   REMARKS
NORFOLK        CLOUDY    32  31  96 S12       30.00R FOG     WCI  23
SO SIOUX CITY  CLOUDY    33  30  88 S13       30.06S FOG     WCI  24
TEKAMAH        CLOUDY    33  31  92 S10       30.07F FOG     WCI  25
COLUMBUS       CLOUDY    30  27  86 SE7       30.04S WCI  23
ALBION         CLOUDY    32  30  94 S10       29.99R FOG     WCI  24
OMAHA EPPLEY   CLOUDY    35  32  88 S9        30.09F FOG     WCI  28
OFFUTT AFB     CLOUDY    34  32  92 SE6       30.07F WCI  29
MILLARD        CLOUDY    35  32  90 SE5       30.08F WCI  31
LINCOLN        CLOUDY    36  33  89 SE10      30.07S WCI  28
NEBRASKA CITY  CLOUDY    34  34 100 SE5       30.08F FOG     WCI  30
BEATRICE       CLOUDY    36  35  99 SE7       30.04F FOG     WCI  30
FALLS CITY     CLOUDY    34  33  96 E3        30.09F FOG

...NORTHERN KANSAS...

CITY           SKY/WX    TMP DP  RH WIND       PRES   REMARKS
GOODLAND       MOCLDY    34  28  79 SE3       29.96F
HILL CITY      CLOUDY    45  34  65 S5        29.99S
NORTON         CLEAR     39  27  60 CALM      29.97S
PHILLIPSBURG   CLEAR     46  37  71 S6        29.99S
SMITH CENTER   CLEAR     37  36  93 SE6       30.00S WCI  33
BELOIT         CLEAR     37  36  93 SE7       30.01F WCI  32
HAYS           MOCLDY    39  30  70 S8        30.01F WCI  34
RUSSELL        PTCLDY    40  38  93 S9        30.01R WCI  34
CONCORDIA      MOCLDY    37  36  96 S6        30.02S WCI  32
SALINA         MOCLDY    41  36  82 S12       30.06F
TOPEKA         PTCLDY    44  37  76 S7        30.11S



USA.gov is the U.S. government's official web portal to all federal, state and local government web resources and services.